This demonstration page uses our WeatherBlox Daily Observations layout. Learn more.

Left ArrowRight Arrow

39.51506, -84.39828

Hourly Observations for June 28, 2019

Temp ( °F °C ) Dew Point ( °F °C ) Humidity (%) Winds ( mph kmh ) Pressure ( in mb ) Visibility ( mi km ) Precip ( " mm )
12:15 am 00:15 Clear 72 22 70 21 94 94 N N/A 30.20 1023 10 16 N/A
12:35 am 00:35 Clear 71 21.9 69 20.4 91 91 NNE 6 9 30.20 1023 10 16 N/A
12:55 am 00:55 Clear 74 23.4 68 20.2 82 82 E 3 6 30.19 1022 10 16 N/A
1:15 am 01:15 Clear 71 21.6 68 20.2 92 92 N N/A 30.18 1022 10 16 N/A
1:35 am 01:35 Clear 69 20.6 67 19.6 94 94 NNW 3 6 30.18 1022 7 11 N/A
1:55 am 01:55 Clear 69 20.3 67 19.6 96 96 N N/A 30.17 1022 10 16 N/A
2:15 am 02:15 Clear 69 20.3 67 19.5 95 95 N N/A 30.17 1022 10 16 N/A
2:35 am 02:35 Clear 69 20.4 67 19.2 93 93 WSW 3 6 30.17 1022 10 16 N/A
2:55 am 02:55 Clear 69 20.7 67 19.4 92 92 N N/A 30.17 1022 10 16 N/A
3:15 am 03:15 Clear 69 20.4 67 19.3 93 93 NNE 5 7 30.18 1022 10 16 N/A
3:35 am 03:35 Clear 69 20.7 67 19.2 91 91 N N/A 30.17 1022 10 16 N/A
3:55 am 03:55 Clear 68 20.1 67 19.2 95 95 N N/A 30.17 1022 10 16 N/A
4:15 am 04:15 Clear 68 19.8 67 19.2 96 96 N N/A 30.18 1022 10 16 N/A
4:35 am 04:35 Clear 67 19.4 66 18.9 97 97 N N/A 30.17 1022 10 16 N/A
4:55 am 04:55 Clear 66 19.1 65 18.5 96 96 WSW 5 7 30.16 1021 10 16 N/A
5:15 am 05:15 Clear 67 19.4 66 19 98 98 SW 5 7 30.18 1022 10 16 N/A
5:35 am 05:35 Clear 67 19.3 66 18.7 96 96 N N/A 30.18 1022 10 16 N/A
5:55 am 05:55 Clear 66 19 65 18.6 98 98 NNE 5 7 30.19 1022 7 11 N/A
6:15 am 06:15 Sunny with Mist and Fog 67 19.2 66 18.8 98 98 N N/A 30.19 1022 5 8 N/A
6:35 am 06:35 Sunny 66 19 65 18.6 98 98 N 5 7 30.20 1023 10 16 N/A
6:55 am 06:55 Sunny 67 19.2 66 18.8 98 98 N N/A 30.21 1023 7 11 N/A
7:15 am 07:15 Sunny 68 20 67 19.4 96 96 N N/A 30.20 1023 7 11 N/A
7:35 am 07:35 Sunny 69 20.8 68 19.8 94 94 N N/A 30.20 1023 10 16 N/A
7:55 am 07:55 Sunny 71 21.7 68 20.1 91 91 N N/A 30.21 1023 10 16 N/A
8:15 am 08:15 Sunny 73 22.8 69 20.6 87 87 N N/A 30.21 1023 7 11 N/A
8:35 am 08:35 Sunny 75 23.9 70 21 84 84 N N/A 30.21 1023 10 16 N/A
8:55 am 08:55 Sunny 77 24.9 70 21.2 80 80 SSW 5 7 30.20 1023 10 16 N/A
9:15 am 09:15 Sunny 79 25.9 70 21.2 75 75 SSW 6 9 30.20 1023 10 16 N/A
9:35 am 09:35 Sunny 80 26.8 70 21.2 71 71 WSW 3 6 30.19 1022 10 16 N/A
9:55 am 09:55 Sunny 82 27.6 68 20.2 64 64 S 3 6 30.19 1022 10 16 N/A
10:15 am 10:15 Sunny 83 28.6 69 20.4 61 61 S 5 7 30.17 1022 10 16 N/A
10:35 am 10:35 Sunny 84 28.9 70 20.9 62 62 WSW 6 9 30.18 1022 10 16 N/A
10:55 am 10:55 Sunny 85 29.7 69 20.8 59 59 WSW 8 13 30.18 1022 10 16 N/A
11:15 am 11:15 Sunny 86 30.1 69 20.4 56 56 SSW 7 11 30.19 1022 10 16 N/A
11:35 am 11:35 Sunny 88 30.9 70 21 56 56 SSW 7 11 30.19 1022 10 16 N/A
11:55 am 11:55 Sunny 88 30.9 69 20.6 54 54 SSW 8 13 30.19 1022 10 16 N/A
12:15 pm 12:15 Sunny 88 31 69 20.5 54 54 SW 7 11 30.18 1022 10 16 N/A
12:35 pm 12:35 Sunny 88 31.3 69 20.4 52 52 W 9 15 30.18 1022 10 16 N/A
12:55 pm 12:55 Partly Cloudy 89 31.6 69 20.6 52 52 SW 7 11 30.17 1022 10 16 N/A
1:15 pm 13:15 Sunny 90 32.4 67 19.7 47 47 WSW 10 17 30.17 1022 10 16 N/A
1:35 pm 13:35 Partly Cloudy 90 32.2 68 20 48 48 SSW 8 13 30.16 1021 10 16 N/A
1:55 pm 13:55 Partly Cloudy 90 32.1 69 20.5 50 50 WSW 7 11 30.16 1021 10 16 N/A
2:15 pm 14:15 Sunny 90 32 67 19.4 47 47 SW 5 7 30.15 1021 10 16 N/A
2:35 pm 14:35 Sunny 90 32.2 68 20.1 49 49 W 8 13 30.15 1021 10 16 N/A
2:55 pm 14:55 Partly Cloudy 91 32.8 67 19.7 46 46 SW 10 17 30.14 1021 10 16 N/A
3:15 pm 15:15 Sunny 91 32.9 68 19.9 46 46 W 7 11 30.13 1020 10 16 N/A
3:35 pm 15:35 Partly Cloudy 91 32.9 67 19.6 45 45 W 12 19 30.13 1020 10 16 N/A
3:55 pm 15:55 Partly Cloudy 91 32.8 68 19.9 47 47 WSW 12 19 30.13 1020 10 16 N/A
4:15 pm 16:15 Sunny 90 32 66 19.1 46 46 WSW 3 6 30.12 1020 10 16 N/A
4:35 pm 16:35 Partly Cloudy 89 31.7 69 20.3 51 51 W 8 13 30.11 1020 10 16 N/A
4:55 pm 16:55 Partly Cloudy 90 32 69 20.7 51 51 W 7 11 30.11 1020 10 16 N/A
5:15 pm 17:15 Partly Cloudy 91 32.6 69 20.7 49 49 SW 9 15 30.10 1019 10 16 N/A
5:35 pm 17:35 Sunny 91 32.6 68 20.2 48 48 SW 9 15 30.09 1019 10 16 N/A
5:55 pm 17:55 Sunny 91 32.6 67 19.3 45 45 SW 10 17 30.09 1019 10 16 N/A
6:15 pm 18:15 Sunny 91 32.6 68 19.8 47 47 WSW 8 13 30.09 1019 10 16 N/A
6:35 pm 18:35 Sunny 90 32.4 68 19.9 48 48 WSW 9 15 30.09 1019 10 16 N/A
6:55 pm 18:55 Sunny 90 32.1 67 19.6 48 48 SW 8 13 30.08 1019 10 16 N/A
7:15 pm 19:15 Sunny 89 31.8 67 19.7 49 49 SW 6 9 30.09 1019 10 16 N/A
7:35 pm 19:35 Sunny 88 31.2 67 19.5 50 50 WSW 6 9 30.09 1019 10 16 N/A
7:55 pm 19:55 Sunny 87 30.7 68 19.8 52 52 WSW 7 11 30.09 1019 10 16 N/A
8:15 pm 20:15 Sunny 85 29.6 70 21.3 61 61 W 5 7 30.09 1019 10 16 N/A
8:35 pm 20:35 Sunny 82 28 72 22.2 71 71 W 5 7 30.11 1020 10 16 N/A
8:55 pm 20:55 Sunny 79 25.9 72 22.4 81 81 N N/A 30.12 1020 10 16 N/A
9:15 pm 21:15 Clear 78 25.3 71 21.6 80 80 N N/A 30.13 1020 10 16 N/A
9:35 pm 21:35 Clear 76 24.5 72 22.1 87 87 N N/A 30.13 1020 10 16 N/A
9:55 pm 21:55 Clear 74 23.4 71 21.8 91 91 N N/A 30.15 1021 10 16 N/A
10:15 pm 22:15 Clear 75 23.8 71 21.7 88 88 N N/A 30.16 1021 10 16 N/A
10:35 pm 22:35 Clear with Mist and Fog 74 23.2 71 21.6 91 91 N N/A 30.15 1021 7 11 N/A
10:55 pm 22:55 Clear 72 22.1 70 21.1 94 94 N N/A 30.15 1021 10 16 N/A
11:15 pm 23:15 Clear 72 22.1 69 20.6 91 91 W 3 6 30.14 1021 10 16 N/A
11:35 pm 23:35 Clear 71 21.5 69 20.3 93 93 W 3 6 30.13 1020 10 16 N/A
11:55 pm 23:55 Clear 71 21.9 69 20.6 92 92 WNW 3 6 30.14 1021 10 16 N/A

Powered by AerisWeather